Regional Weather Roundup
Issued by NWS Green Bay, WI

Home | Current Version | Previous Version | Graphics & Text | Print | Product List | Glossary Off
Versions: 1 2 3 4 5 6 7 8 9 10 11 12 13 14 15 16 17 18 19 20 21 22 23 24 25 26 27 28 29 30 31 32 33 34 35 36 37 38 39 40 41 42 43 44 45 46 47 48 49 50

000
ASUS43 KGRB 061111
RWRGRB

NORTH-CENTRAL AND NORTHEAST WISCONSIN REGIONAL WEATHER ROUNDUP
NATIONAL WEATHER SERVICE GREEN BAY WI
500 AM CST SAT FEB 06 2016

WIZ005-009-010>012-018-019-061200-
NORTH CENTRAL WISCONSIN

CITY           SKY/WX    TMP DP  RH WIND       PRES   REMARKS
IRONWOOD       CLOUDY    21  19  93 SW8       30.02F
MANITOWISH WTR CLOUDY    19  19 100 SW7       30.04F FOG
ARBOR VITAE    CLOUDY    22  20  93 W5        30.05S FOG
EAGLE RIVER    CLOUDY    20  19  96 W8        30.04S FOG
LAND O LAKES   CLOUDY    21  19  93 W5        30.03F
RHINELANDER    CLOUDY    20  18  92 W7        30.06F FOG
PHILLIPS       CLOUDY    20  19  97 SW5       30.06F FOG
ANTIGO         CLOUDY    20  19  96 W12       30.08F FOG     WCI   8
TOMAHAWK       CLOUDY    20  19  94 CALM      30.09R FOG
MERRILL        CLOUDY    22  21  97 SW6       30.11S FOG
$$

WIZ013-073-061200-
NORTHEAST WISCONSIN

CITY           SKY/WX    TMP DP  RH WIND       PRES   REMARKS
IRON MOUNTAIN  CLOUDY    23  16  74 W8        30.05F
MARINETTE      CLOUDY    25  18  74 W6        30.12S
OCONTO         CLOUDY    25  20  83 W8        30.14S
$$

WIZ017-030-035>037-045-061200-
CENTRAL WISCONSIN

CITY           SKY/WX    TMP DP  RH WIND       PRES   REMARKS
MEDFORD        CLOUDY    22  21  98 SW7       30.08S FOG
WAUSAU         CLOUDY    23  20  88 SW9       30.10F FOG
MOSINEE        NOT AVBL
MARSHFIELD     CLOUDY    23  20  88 SW9       30.11F FOG
WISC RAPIDS    CLOUDY    25  20  81 W9        30.17S
STEVENS POINT  CLOUDY    22  20  92 SW9       30.14F
WAUPACA        CLOUDY    28  22  78 SW10      30.16F
SHAWANO        CLOUDY    27  21  79 W7        30.14S
CLINTONVILLE   FLURRIES  27  21  80 W9        30.15S
WAUTOMA        CLOUDY    26  21  81 SW7       30.18S
$$

WIZ038-039-048-051-061200-
FOX VALLEY

CITY           SKY/WX    TMP DP  RH WIND       PRES   REMARKS
NWS GREEN BAY  LGT SNOW  25  20  81 SW10      30.15F
APPLETON       NOT AVBL
OSHKOSH        CLOUDY    26  18  71 SW9       30.17S
FOND DU LAC    CLOUDY    27  19  72 SW8       30.18F
$$

WIZ022-050-052-061200-
EAST CENTRAL WISCONSIN

CITY           SKY/WX    TMP DP  RH WIND       PRES   REMARKS
EPHRAIM        FLURRIES  24  20  85 W10G16    30.11S
STURGEON BAY   CLOUDY    25  18  74 W16G23    30.15S
MANITOWOC      FLURRIES  28  19  69 SW13      30.17F
SHEBOYGAN        N/A     28  17  63 SW13      30.18F
$$

LMZ563-521-522-541>543-061200-
LAKESHORE

STATION/POSITION TIME  TEMP    WIND        PRES    VSBY  WAVE
                       AIR SEA DIR/SP/G                  HT/PER
                 (UTC) (F)     (DEG/KT/KT) (MB)    (MI)  (FT/S)
SHEBOYGAN LKSHOR 1100   29     220/ 11/ 12 1023.2F
KEWAUNEE LKSHORE 1000   27     250/  6/ 12 1020.5F
ALGOMA MARINA    1011          270/ 11/ 16   N/A
CHAMBERS ISLAND  1000   26     210/  8/ 14 1020.3F
MENOMINEE LKSHOR 1000   26     230/ 11     1019.1F
$$



USA.gov is the U.S. government's official web portal to all federal, state and local government web resources and services.